Location: Boiro
(42.6475°N, 8.8834°W)
Time: 04:19:01
(UTC+01:00)

Vanguard 1 Rocket - Pass Details

Date: 13 December 2021
Orbit: 651 x 4224 km, 34.3° (Epoch: 21 January)

Event Time Altitude Azimuth Distance (km) Brightness Sun altitude
Rises 06:03:06 0° 272° (W) 4,692 - -31.1°
Reaches altitude 10° 06:05:44 10° 266° (W) 4,048 - -30.6°
Exits shadow 06:11:49 37° 240° (WSW) 3,116 9.6 -29.5°
Maximum altitude 06:16:42 49° 196° (SSW) 3,189 9.9 -28.6°
Drops below altitude 10° 06:36:39 10° 130° (SE) 7,008 12.7 -24.9°
Sets 06:43:07 0° 126° (SE) 8,313 13.3 -23.8°
